DLH457 EDDF-KLAX

Flight info

Callsign DLH457
Flight time N/A
Altitude 34000
Route OBOKA2L OBOKA Z28 DIBIR DCT BUDIP DCT GISEB DCT RAVLO Y70 ABTOS N110 ERKIT DCT KUGUR DCT PIKIL/M082F360 DCT 57N020W 57N030W 57N040W 56N050W DCT JANJO/N0482F380 DCT DENSO DCT AGLOL DCT MERNU DCT XEXUL DCT BLUOX DCT RAP/N0472F400 J158 DDY J107 NORRA J100 LAS Q70 HAILO DCT KOPLE BOGET2
Aircraft B748/H-SADE2E3GHIJ3J4J5M1P2RWXYZ/LB1D1

Departure

Time 2026-05-04 06:13
Airport Frankfurt Main Airport (EDDF)

Arrival

Time N/A
Airport Los Angeles International Airport (KLAX)
Time Latitude Longitude Altitude Speed Heading
2026-05-04 05:51 50.04644 8.55943 370 ft 0 kts 340°
2026-05-04 06:00 50.04626 8.55954 369 ft 4 kts 339°
2026-05-04 06:01 50.04605 8.55966 366 ft 2 kts 341°
2026-05-04 06:01 50.04583 8.55982 366 ft 4 kts 316°
2026-05-04 06:03 50.04582 8.56083 366 ft 0 kts 250°
2026-05-04 06:05 50.04574 8.56051 366 ft 2 kts 248°
2026-05-04 06:05 50.04561 8.56008 366 ft 2 kts 238°
2026-05-04 06:05 50.04537 8.55975 371 ft 7 kts 213°
2026-05-04 06:06 50.04472 8.55933 371 ft 13 kts 199°
2026-05-04 06:06 50.04389 8.55915 366 ft 11 kts 174°
2026-05-04 06:06 50.04301 8.55960 370 ft 15 kts 152°
2026-05-04 06:06 50.04272 8.56057 369 ft 9 kts 85°
2026-05-04 06:07 50.04284 8.56157 370 ft 8 kts 94°
2026-05-04 06:07 50.04260 8.56218 368 ft 8 kts 141°
2026-05-04 06:07 50.04188 8.56267 365 ft 14 kts 158°
2026-05-04 06:07 50.04149 8.56345 368 ft 9 kts 96°
2026-05-04 06:08 50.04171 8.56459 368 ft 14 kts 69°
2026-05-04 06:08 50.04212 8.56632 371 ft 18 kts 70°
2026-05-04 06:08 50.04257 8.56822 373 ft 21 kts 68°
2026-05-04 06:08 50.04315 8.57062 374 ft 27 kts 70°
2026-05-04 06:09 50.04382 8.57346 374 ft 28 kts 69°
2026-05-04 06:09 50.04447 8.57617 377 ft 25 kts 70°
2026-05-04 06:11 50.04530 8.58604 380 ft 7 kts 186°
2026-05-04 06:11 50.04487 8.58565 380 ft 10 kts 223°
2026-05-04 06:13 50.00854 8.48302 3496 ft 203 kts 201°
2026-05-04 06:14 49.92271 8.45129 6363 ft 237 kts 217°
2026-05-04 06:14 49.91196 8.43158 6674 ft 251 kts 248°
2026-05-04 06:15 49.90941 8.40455 7320 ft 262 kts 277°
2026-05-04 06:15 49.91613 8.37807 8044 ft 272 kts 304°
2026-05-04 06:15 49.93026 8.35806 8817 ft 280 kts 322°
2026-05-04 06:15 49.94674 8.34140 9564 ft 284 kts 322°
2026-05-04 06:16 49.96296 8.32363 10258 ft 287 kts 318°
2026-05-04 06:16 49.97872 8.30373 10711 ft 299 kts 316°
2026-05-04 06:16 49.99517 8.28258 11080 ft 315 kts 317°
2026-05-04 06:16 50.01281 8.26079 11398 ft 333 kts 319°
2026-05-04 06:17 50.03135 8.23824 11963 ft 342 kts 319°
2026-05-04 06:17 50.04984 8.21544 12588 ft 349 kts 318°
2026-05-04 06:17 50.06896 8.19163 13276 ft 355 kts 318°
2026-05-04 06:17 50.08834 8.16754 13923 ft 360 kts 319°
2026-05-04 06:18 50.10806 8.14312 14541 ft 364 kts 319°
2026-05-04 06:18 50.12798 8.11839 15145 ft 368 kts 318°
2026-05-04 06:18 50.14809 8.09337 15765 ft 372 kts 318°
2026-05-04 06:20 50.29378 7.91128 19783 ft 397 kts 317°
2026-05-04 06:20 50.31538 7.88416 20330 ft 400 kts 317°
2026-05-04 06:21 50.40342 7.77328 22421 ft 412 kts 317°
2026-05-04 06:21 50.42582 7.74500 22904 ft 415 kts 316°
2026-05-04 06:22 50.44835 7.71649 23372 ft 418 kts 316°
2026-05-04 06:22 50.47107 7.68772 23787 ft 421 kts 316°
2026-05-04 06:25 50.76686 7.28906 28704 ft 432 kts 301°
2026-05-04 06:25 50.78447 7.24970 29087 ft 434 kts 300°
2026-05-04 06:26 50.80165 7.21113 29467 ft 436 kts 300°
2026-05-04 06:26 50.81914 7.17187 29848 ft 438 kts 300°
2026-05-04 06:26 50.83673 7.13242 30210 ft 440 kts 300°
2026-05-04 06:26 50.85436 7.09277 30508 ft 442 kts 300°
2026-05-04 06:27 50.92523 6.93280 31702 ft 450 kts 300°
2026-05-04 06:28 50.94323 6.89206 31977 ft 452 kts 300°
2026-05-04 06:28 50.96128 6.85112 32236 ft 454 kts 300°
2026-05-04 06:28 50.97939 6.80997 32501 ft 456 kts 300°
2026-05-04 06:28 50.99760 6.76855 32759 ft 459 kts 300°
2026-05-04 06:29 51.01591 6.72684 33027 ft 461 kts 300°
2026-05-04 06:29 51.03426 6.68498 33272 ft 463 kts 300°
2026-05-04 06:29 51.05270 6.64282 33516 ft 466 kts 300°
2026-05-04 06:29 51.07122 6.60046 33824 ft 468 kts 300°
2026-05-04 06:30 51.08977 6.55791 33967 ft 468 kts 300°
2026-05-04 06:30 51.10825 6.51544 33961 ft 466 kts 300°
2026-05-04 06:30 51.14505 6.43066 33960 ft 465 kts 299°
2026-05-04 06:31 51.18172 6.34589 33974 ft 465 kts 299°
2026-05-04 06:31 51.21834 6.26097 33973 ft 465 kts 299°
2026-05-04 06:33 51.35487 5.93425 33978 ft 459 kts 297°
2026-05-04 06:34 51.39220 5.85110 33987 ft 467 kts 307°
2026-05-04 06:34 51.43812 5.77705 33984 ft 469 kts 309°
2026-05-04 06:36 51.61569 5.47811 33967 ft 463 kts 308°
2026-05-04 06:37 51.66015 5.40297 33966 ft 463 kts 308°
2026-05-04 06:37 51.70448 5.32765 33989 ft 462 kts 308°
2026-05-04 06:38 51.74854 5.25275 33966 ft 459 kts 308°
2026-05-04 06:40 51.92005 4.94802 33959 ft 453 kts 298°
2026-05-04 06:40 51.95462 4.86284 33969 ft 453 kts 299°
2026-05-04 06:41 51.99036 4.77864 33938 ft 453 kts 299°
2026-05-04 06:41 52.02535 4.69390 33932 ft 452 kts 299°
2026-05-04 06:42 52.06051 4.60945 33963 ft 451 kts 299°
2026-05-04 06:44 52.20023 4.26975 33947 ft 451 kts 299°
2026-05-04 06:44 52.23415 4.18664 33954 ft 450 kts 299°
2026-05-04 06:45 52.26880 4.10144 33962 ft 451 kts 299°
2026-05-04 06:45 52.30318 4.01662 33962 ft 451 kts 299°
2026-05-04 06:46 52.33774 3.93106 33971 ft 454 kts 298°
2026-05-04 06:46 52.37182 3.84529 33974 ft 453 kts 297°
2026-05-04 06:48 52.50654 3.49573 33969 ft 455 kts 298°
2026-05-04 06:50 52.64231 3.13920 33977 ft 460 kts 298°
2026-05-04 06:51 52.67610 3.04971 33973 ft 460 kts 298°
2026-05-04 06:51 52.70997 2.95963 33980 ft 465 kts 298°
2026-05-04 06:52 52.74414 2.86852 33982 ft 467 kts 298°
2026-05-04 06:52 52.77805 2.77771 33981 ft 466 kts 298°
2026-05-04 06:53 52.81208 2.68628 33981 ft 466 kts 298°
2026-05-04 06:53 52.84559 2.59590 33982 ft 466 kts 298°
2026-05-04 06:54 52.87953 2.50401 33980 ft 468 kts 298°
2026-05-04 06:54 52.91351 2.41174 33984 ft 469 kts 298°
2026-05-04 06:55 52.94745 2.31919 33984 ft 469 kts 298°
2026-05-04 06:55 52.98110 2.22710 33987 ft 469 kts 298°
2026-05-04 06:57 53.11589 1.85479 33989 ft 472 kts 299°
2026-05-04 06:58 53.14959 1.76082 33998 ft 472 kts 298°
2026-05-04 06:58 53.18307 1.66715 33997 ft 472 kts 298°
2026-05-04 06:59 53.21661 1.57291 34000 ft 472 kts 298°
2026-05-04 06:59 53.25024 1.47805 33997 ft 475 kts 299°
2026-05-04 07:01 53.38318 1.09965 34007 ft 471 kts 299°
2026-05-04 07:02 53.41616 1.00485 34015 ft 473 kts 299°
2026-05-04 07:02 53.44924 0.90943 34017 ft 471 kts 298°
2026-05-04 07:03 53.48226 0.81371 34021 ft 475 kts 299°
2026-05-04 07:03 53.51510 0.71837 34021 ft 473 kts 298°
2026-05-04 07:04 53.54792 0.62243 34023 ft 474 kts 299°
2026-05-04 07:04 53.58091 0.52593 34029 ft 474 kts 298°
2026-05-04 07:05 53.61341 0.43019 34023 ft 474 kts 300°
2026-05-04 07:05 53.64624 0.33331 34019 ft 476 kts 300°
2026-05-04 07:06 53.69528 0.18774 34027 ft 474 kts 299°
2026-05-04 07:07 53.72754 0.09153 34025 ft 473 kts 299°